Terminal Aerodrome Forecast
Issued by NWS Hastings, NE

Home | Current Version | Previous Version | Text Only | Print | Product List | Glossary On
Versions: 1 2 3 4 5 6 7 8 9 10 11 12 13 14 15
000
FTUS43 KGID 271308 AAB
TAFGRI
TAF AMD
KGRI 271308Z 2713/2812 VRB06KT P6SM SCT004
     FM271500 14006KT P6SM SCT015
     FM271700 15008KT P6SM FEW015 SCT035
     FM272000 15008KT P6SM FEW035 SCT120
     FM280800 18008KT P6SM BKN200=

USA.gov is the U.S. government's official web portal to all federal, state and local government web resources and services.